This is the latest recevied weather packets stored in our database for station/object NY3Q. If no packets are shown the sender has not sent any weather packets the latest 10 day(s).
| Time | Temp. | Humidity | Pressure | Rain* | Wind** | Luminosity | Snow |
|---|---|---|---|---|---|---|---|
| 1777810178 | 15.56° C | 97% | 1018.6 hPa | 0 mm | - | 67 W/m² | - |
| 1777809876 | 15.56° C | 97% | 1018.5 hPa | 0 mm | - | 62 W/m² | - |
| 1777809574 | 15° C | 97% | 1018.6 hPa | 0 mm | - | 57 W/m² | - |
| 1777809271 | 15° C | 97% | 1018.7 hPa | 0 mm | - | 51 W/m² | - |
| 1777808969 | 15° C | 97% | 1018.7 hPa | 0 mm | - | 46 W/m² | - |
| 1777808666 | 14.44° C | 97% | 1018.5 hPa | 0 mm | - | 43 W/m² | - |
| 1777808362 | 14.44° C | 97% | 1018.6 hPa | 0 mm | - | 38 W/m² | - |
| 1777808061 | 13.89° C | 97% | 1018.5 hPa | 0 mm | - | 34 W/m² | - |
| 1777807758 | 13.33° C | 97% | 1018.6 hPa | 0 mm | - | 29 W/m² | - |
| 1777807457 | 13.33° C | 97% | 1018.5 hPa | 0 mm | - | 21 W/m² | - |
| 1777807157 | 12.78° C | 97% | 1018.5 hPa | 0 mm | - | 19 W/m² | - |
| 1777806855 | 12.78° C | 97% | 1018.2 hPa | 0 mm | - | 17 W/m² | - |
| 1777806551 | 12.78° C | 97% | 1018.2 hPa | 0 mm | - | 15 W/m² | - |
| 1777806247 | 12.78° C | 97% | 1018.2 hPa | 0 mm | - | 12 W/m² | - |
| 1777805943 | 12.22° C | 97% | 1018.2 hPa | 0 mm | - | 9 W/m² | - |
| 1777805640 | 12.22° C | 97% | 1018 hPa | 0 mm | - | 7 W/m² | - |
| 1777805338 | 12.22° C | 97% | 1017.9 hPa | 0 mm | - | 4 W/m² | - |
| 1777805035 | 12.22° C | 97% | 1017.7 hPa | 0 mm | - | 3 W/m² | - |
| 1777804733 | 12.78° C | 97% | 1017.6 hPa | 0 mm | - | 1 W/m² | - |
| 1777804431 | 12.78° C | 97% | 1017.4 hPa | 0 mm | - | 1 W/m² | - |
| 1777804128 | 12.78° C | 97% | 1017.5 hPa | 0 mm | - | 0 W/m² | - |
| 1777803824 | 12.78° C | 97% | 1017.5 hPa | 0 mm | - | 0 W/m² | - |
| 1777803520 | 12.78° C | 97% | 1017.5 hPa | 0 mm | - | 0 W/m² | - |
| 1777803218 | 12.78° C | 97% | 1017.5 hPa | 0 mm | - | 0 W/m² | - |
| 1777802915 | 12.78° C | 97% | 1017.2 hPa | 0 mm | - | 0 W/m² | - |
* Rain latest hour (hover to see other rain measurements)
** Current wind speed in m/s (hover to see current wind gust speed)